Location: Alvediston
(51.0078°N, 2.0364°W)
Time: 15:36:28
(UTC+00:00)

STARLINK-1062 - Pass Details

Date: 27 February 2020
Orbit: 548 x 551 km, 53.0° (Epoch: 28 March)

Event Time Altitude Azimuth Distance (km) Brightness Sun altitude
Rises 19:11:09 0° 231° (SW) 2,708 7.9 -14.4°
Reaches altitude 10° 19:13:24 10° 226° (SW) 1,818 6.8 -14.7°
Maximum altitude 19:17:25 51° 150° (SSE) 692 3.9 -15.3°
Enters shadow 19:19:09 30° 90° (E) 1,006 4.4 -15.6°
